SL-14 DEB, 45291

Orbit data source: Space-Track

SL-14 DEB, 45291 is space debris in LEO originally from a launch on Thu, 15 Aug 1991 UTC launched from the Plesetsk Missile And Space Complex (PKMTR). Debris objects in space refer to the collection of defunct objects orbiting the Earth. Examples of debris include non-operational satellites, rocket bodies, and fragments generated from explosions, collisions, or faulty payload assembly.

Loading next visibility...
Identifier
45291, 1991-056AD
Orbit
LEO
Last TLE update
16 hours ago
Origin
Manufacturer
Unknown
Mission
Spacecraft
Bus & Motor
Unknown
Mass
Unknown
Launch date (UTC)
1991-08-15 (34 years ago)
Launch vehicle
Unknown
Launch site
Plesetsk Missile And Space Complex (PKMTR)
Object type
Payload
Rocket body
Debris
Shape & HBR
Unknown
Radar Cross Section
Small (<0.1 m²)

Expand to show TLE details & history

TLE from 16 hours ago
0 SL-14 DEB
1 45291U 91056AD  25172.93036192  .00000002  00000-0 -29128-4 0  9991
2 45291  82.5487  49.3317 0037537 122.6308 237.8443 13.10720983255378
Epoch: 2025-06-21T22:19Z
TLE epoch observation values (Epoch: 2025-06-21T22:19:43.269Z)
Latitude
0.00003°
Longitude
164.03914°
Altitude
1,238.429 km
Speed
7.228 km/s
True Right ascension
03h 17m 19s
True Declination
0° 00' 00"
Sunlit
Object was in daylight at epoch
Visualization orbit readout
Latitude
-61.7039°
Longitude
149.57997°
Altitude
1,272.543 km
Speed
7.205 km/s
Apparent Right ascension
11h 39m 29s
Apparent Declination
-81° 58' 10"
Sunlit
Object is in daylight
Visualization observer readout
Local Sidereal Time
01:33:25
Azimuth
174.41° S
Elevation
-46.849°
Doppler factor
1
Orbital elements
Apogee altitude
1,246.137 km
Perigee altitude
1,189.113 km
Semi-major axis
7,595.762 km
Eccentricity
0.00375
Inclination
82.5487°
RAAN
49.3317°
Arg. of periapsis
122.6308°
True anomaly
Unknown
Mean anomaly
237.8443°
Eccentric anomaly
Unknown
Mean motion
3.27858 °/min
Orbital period
109.8 mins
BSTAR
-0.000029128
Loading maneuver chart data...
Loading SW <> Apogee altitude chart data...
Loading historical data...
Loading historical data...
Loading historical data...
Loading historical data...
Loading historical data...
Loading historical data...
Loading historical data...

SL-14 DEB Visibility forecast

Observer location: undefined°, undefined°

Span
Click to sort rows by Start time (UTC) header in descending order
Start Az.
Max El. time (UTC)
Max El. Az.
Max El.
End time (UTC)
End Az.
9 mins2025-06-22 14:56:47.601Z121.395° SE2025-06-22 15:01:47.601Z77.215° E18.261°2025-06-22 15:05:47.601Z42.299° NE
12 mins2025-06-22 16:45:47.601Z196.748° SSW2025-06-22 16:51:47.601Z306.023° NW43.322°2025-06-22 16:57:47.601Z2.635° NNE
10 mins2025-06-23 02:25:47.601Z24.154° NE2025-06-23 02:29:47.601Z67.622° E25.853°2025-06-23 02:35:47.601Z127.309° SE
12 mins2025-06-23 04:15:47.601Z336.615° NNW2025-06-23 04:20:47.601Z276.076° WNW37.264°2025-06-23 04:27:47.601Z197.895° SSW
|